Tracking 26442 objects as of 7-Dec-2022
HD Live streaming from Space Station
objects crossing your sky now

NOAA 16 DEB

Track NOAA 16 DEB now!
10-day predictions


NORAD ID: 41714
Int'l Code: 2000-055PU
Perigee: 830.7 km
Apogee: 1,000.9 km
Inclination: 99.0 °
Period: 103.2 minutes
Semi major axis: 7286 km
RCS: Unknown
Launch date: September 21, 2000
Source: United States (US)
Launch site: AIR FORCE WESTERN TEST RANGE (AFWTR)

Note: This is SATELLITE DEBRIS
aabbcc
Your satellite tracking list
Your tracking list is empty




NASA's NSSDC Master Catalog

Two Line Element Set (TLE):
1 41714U 00055PU  22338.87993600  .00003845  00000-0  26925-2 0  9993
2 41714  98.9680 355.5896 0116842 168.2907 192.1014 13.95719095332358
Source of the keplerian elements: AFSPC